Location: Santa Teresa Spring
(37.2333°N, 121.7000°W)
Time: 10:39:02
(UTC-07:00)

ISS - Visible Passes

Search period start: 22 August 2014 00:00
Search period end: 01 September 2014 00:00
Orbit: 413 x 419 km, 51.6° (Epoch: 22 August)

Date Brightness Start Highest point End Pass type
(mag) Time Alt. Az. Time Alt. Az. Time Alt. Az.
22 Aug -2.5 20:27:26 10° NW 20:30:36 40° NE 20:33:21 13° ESE visible
22 Aug -0.7 22:04:44 10° W 22:06:15 17° WSW 22:06:15 17° WSW visible
23 Aug -2.0 21:15:39 10° WNW 21:18:42 33° SW 21:19:46 26° S visible
24 Aug -3.0 20:26:53 10° NW 20:30:12 65° SW 20:33:22 11° SE visible
25 Aug -0.4 21:17:01 10° WSW 21:17:55 11° SW 21:18:49 10° SW visible
26 Aug -0.9 20:26:58 10° W 20:29:29 20° SW 20:32:00 10° S visible
